Regional Weather Roundup
Issued by NWS

Home | Current Version | Previous Version | Text Only | Print | Product List | Glossary Off
Versions: 1 2 3 4 5 6 7 8 9 10 11 12 13 14 15 16 17 18 19 20 21 22 23 24 25 26 27 28 29 30 31 32 33 34 35 36 37 38 39 40 41 42 43 44 45 46 47 48 49 50

000
ASUS43 KLSX 280710
RWRMO

WEATHER SUMMARY FOR MISSOURI
NATIONAL WEATHER SERVICE SPRINGFIELD MO
200 AM CDT FRI APR 28 2017

NOTE: "FAIR" INDICATES FEW OR NO CLOUDS BELOW 12,000 FEET WITH NO
       SIGNIFICANT WEATHER AND/OR OBSTRUCTIONS TO VISIBILITY.
       CURRENT SKY AND/OR WEATHER CONDITIONS ARE NOT AVAILABLE FOR
       CHILLICOTHE AND FARMINGTON.

MOZ001>031-035>038-043-044-053-054-280800-
...NORTHERN AND WESTERN MISSOURI...

CITY           SKY/WX    TMP DP  RH WIND       PRES   REMARKS
KANSAS CTY INT LGT RAIN  51  47  86 E9        29.75F
KANSAS C DTWN  LGT RAIN  52  48  86 E10       29.75F
LEE`S SUMMIT   LGT RAIN  51  50  96 N5        29.78R
ST JOSEPH      LGT RAIN  50  49  96 NE8       29.77F
CHILLICOTHE      N/A     50  49  96 CALM      29.80F
KIRKSVILLE     CLOUDY    48  47  96 CALM      29.82S

$$
MOZ066>068-077>081-088>096-101>105-280800-
...SOUTHWEST MISSOURI...

CITY           SKY/WX    TMP DP  RH WIND       PRES   REMARKS
SPRINGFIELD    CLOUDY    55  51  86 S14G23    29.75F
JOPLIN         LGT RAIN  58  53  84 SE15      29.67F
BRANSON        CLOUDY    55  48  76 SE6       29.81F

$$
MOZ032>034-039>042-045>050-055>058-069>072-280800-
...CENTRAL MISSOURI...

CITY           SKY/WX    TMP DP  RH WIND       PRES   REMARKS
COLUMBIA       CLOUDY    52  46  80 E7        29.79F
JEFFERSON CITY MOCLDY    56  46  69 E9        29.79F
ROLLA          MOCLDY    53  49  86 S9        29.81R
SEDALIA        CLOUDY    54  48  80 E10       29.77F
WHITEMAN AFB   MOCLDY    54  51  92 E9        29.74F
OSAGE BEACH    CLOUDY    54  47  77 E3        29.79F

$$
MOZ051-052-059>065-280800-
...EAST CENTRAL MISSOURI...

CITY           SKY/WX    TMP DP  RH WIND       PRES   REMARKS
ST LOUIS INTL  CLOUDY    57  49  74 SE12      29.82F
SPIRIT OF STL  CLOUDY    54  51  90 CALM      29.82F
ST CHARLES     CLOUDY    53  51  93 E8        29.81F

$$
MOZ072>076-082>087-097>100-106>115-280800-
...SOUTH CENTRAL AND SOUTHEAST MISSOURI...

CITY           SKY/WX    TMP DP  RH WIND       PRES   REMARKS
CAPE GIRARDEAU PTCLDY    54  50  86 E5        29.85S
FARMINGTON     CLOUDY    53  49  86 S6        29.85R
POPLAR BLUFF   CLOUDY    57  55  93 NE3       29.84S
WEST PLAINS    CLOUDY    54  51  90 CALM      29.84R

$$




USA.gov is the U.S. government's official web portal to all federal, state and local government web resources and services.